Simultaneous Nadir Overpasses (SNOs) Predictions

Prediction of SNOs between GOES-15 and NOAA-20 Satellite Orbit:

Table of predicted SNOs for the next 14.0 days since TLE Epoch: 11/4/2022
Index Date Time (GOES-15) GOES-15 Lat,Lon NOAA-20 Lat,Lon Distance(km) Time Diff (sec)
1 11/04/2022 21:52:19 -0.14,-128.37 0.24,-126.58 203.17 80
2 11/06/2022 10:11:28 0.11,-128.44 0.86,-131.87 390.37 80
3 11/07/2022 09:55:22 0.13,-128.43 -0.13,-127.33 125.72 80
4 11/08/2022 22:14:38 -0.10,-128.34 -1.07,-132.63 488.67 80
5 11/09/2022 21:58:32 -0.12,-128.33 -0.08,-128.09 27.35 80
6 11/12/2022 09:58:55 0.11,-128.38 0.18,-128.84 51.52 80
7 11/13/2022 09:42:49 0.12,-128.36 -0.81,-124.30 463.76 80
8 11/14/2022 22:02:05 -0.09,-128.26 -0.38,-129.60 151.98 80
9 11/15/2022 21:45:59 -0.10,-128.25 0.63,-125.06 363.28 80
10 11/17/2022 10:05:07 0.07,-128.30 0.53,-130.33 231.50 80
11 11/18/2022 09:49:01 0.08,-128.28 -0.47,-125.80 283.43 80
